x

9432780 - Charleston, Or (chao3) Weather Station

11:36am - Tue 9th Feb 2016 All times are PST. -8 hours from GMT.

  • Wind
    2mph, 7mph gusts
  • Sea Temp 52°f
  • Sea Pressure 1020.3mb
  • 9432780 - Charleston, Or
  • 9432780 - Charleston, Or

More Historic Weather Station data

Upgrade to MSW Pro to gain access to the past 30 days of data for over 8000 Wavebouys and Weather Stations around the globe.

Join Pro

Comparision Forecast

View Surf forecast
   
Tue 02/09 11:36am 2 7 mph 1020.3mb 52f
11:30am 2 8 mph 1020.3mb 52f
11:24am 3 9 mph 1020.3mb 52f
11:18am 2 7 mph 1020.3mb 52f
11:12am 3 8 mph 1020.5mb 52f
11:06am 2 7 mph 1020.4mb 52f
11:00am 3 8 mph 1020.5mb 52f
10:36am 5 8 mph 1020.6mb 52f
10:30am 6 8 mph 1020.7mb 52f
10:24am 6 8 mph 1020.7mb 52f
10:18am 6 9 mph 1020.7mb 52f
10:12am 6 8 mph 1020.7mb 52f
10:06am 6 9 mph 1020.8mb 52f
10:00am 6 9 mph 1020.9mb 52f
9:36am 6 10 mph 1021mb 52f
9:30am 5 9 mph 1020.9mb 52f
9:24am 5 10 mph 1020.9mb 52f
9:18am 5 10 mph 1020.9mb 52f
9:12am 5 10 mph 1020.9mb 52f
9:06am 5 11 mph 1020.9mb 52f
9:00am 6 10 mph 1021mb 52f
8:36am 7 14 mph 1020.9mb 52f
8:30am 7 11 mph 1020.8mb 52f
8:24am 6 13 mph 1020.8mb 52f
8:18am 7 13 mph 1020.8mb 52f
8:12am 6 11 mph 1020.9mb 52f
8:06am 6 10 mph 1020.8mb 52f
8:00am 6 10 mph 1020.9mb 52f
7:36am 6 9 mph 1020.8mb 52f
7:30am 6 10 mph 1020.8mb 52f
7:24am 5 9 mph 1020.8mb 52f
7:18am 6 9 mph 1020.7mb 52f
7:12am 6 10 mph 1020.7mb 52f
7:06am 6 13 mph 1020.7mb 52f
7:00am 6 9 mph 1020.7mb 52f
6:36am 6 9 mph 1020.9mb 52f
6:30am 7 11 mph 1020.8mb 52f
6:24am 6 13 mph 1020.7mb 52f
6:18am 7 11 mph 1020.6mb 52f
6:12am 6 11 mph 1020.5mb 52f
6:06am 7 13 mph 1020.4mb 52f
6:00am 6 11 mph 1020.3mb 52f
5:36am 6 10 mph 1020.3mb 52f
5:30am 6 10 mph 1020.3mb 52f
5:24am 6 11 mph 1020.3mb 52f
5:18am 6 11 mph 1020.2mb 52f
5:12am 7 11 mph 1020.3mb 52f
5:06am 6 10 mph 1020.2mb 52f
5:00am 5 9 mph 1020.1mb 52f
4:36am 7 9 mph 1020.1mb 52f
4:30am 6 10 mph 1020.1mb 52f
4:24am 6 11 mph 1020.2mb 52f
4:18am 7 14 mph 1020.2mb 52f
4:12am 7 11 mph 1020.2mb 52f
4:06am 7 11 mph 1020.2mb 52f
4:00am 7 10 mph 1020.2mb 52f
3:36am 7 10 mph 1020.4mb 52f
3:30am 7 11 mph 1020.4mb 52f
3:24am 7 11 mph 1020.4mb 52f
3:18am 7 10 mph 1020.4mb 52f
3:12am 6 10 mph 1020.4mb 52f
3:06am 5 10 mph 1020.4mb 52f
3:00am 6 9 mph 1020.4mb 52f
2:36am 6 10 mph 1020.5mb 52f
2:30am 6 9 mph 1020.5mb 52f
2:24am 6 9 mph 1020.5mb 52f
2:18am 6 10 mph 1020.5mb 52f
2:12am 6 10 mph 1020.4mb 52f
2:06am 6 10 mph 1020.5mb 52f
2:00am 6 13 mph 1020.5mb 52f
1:36am 6 10 mph 1020.6mb 52f
1:30am 6 11 mph 1020.7mb 52f
1:24am 6 11 mph 1020.6mb 52f
1:18am 6 13 mph 1020.7mb 52f
1:12am 6 10 mph 1020.7mb 52f
1:06am 6 11 mph 1020.7mb 52f
1:00am 6 10 mph 1020.7mb 52f
12:36am 3 9 mph 1020.8mb 52f
12:30am 5 9 mph 1020.8mb 52f
12:24am 3 9 mph 1020.8mb 52f
12:18am 3 9 mph 1020.8mb 52f
12:12am 3 8 mph 1020.8mb 52f
12:06am 5 9 mph 1020.7mb 52f
12:00am 5 9 mph 1020.8mb 52f
Mon 02/08 11:36pm 6 9 mph 1020.9mb 52f
11:30pm 6 9 mph 1021mb 52f
11:24pm 6 9 mph 1021mb 52f
11:18pm 7 10 mph 1021mb 52f
11:12pm 6 9 mph 1021mb 52f
11:06pm 6 10 mph 1021.1mb 52f
11:00pm 6 9 mph 1021.1mb 52f
10:36pm 5 8 mph - 52f
10:30pm 5 7 mph - 52f
10:24pm 6 10 mph - 52f
10:18pm 6 8 mph - 53f
10:12pm 6 9 mph - 53f
10:06pm 5 8 mph - 53f
10:00pm 6 7 mph - 53f
9:36pm 6 8 mph 1021.5mb 53f
9:30pm  -  mph 1021.5mb 53f
9:24pm 5 8 mph 1021.5mb 53f
9:18pm 5 7 mph 1021.5mb 53f
9:12pm 5 7 mph 1021.6mb 53f
9:06pm 5 7 mph 1021.6mb 53f
9:00pm 5 7 mph 1021.6mb 53f
8:36pm 5 7 mph 1021.8mb 53f
8:30pm 6 8 mph 1021.8mb 53f
8:24pm 6 8 mph 1021.8mb 53f
8:18pm 6 8 mph 1021.8mb 53f
8:12pm 6 7 mph 1021.8mb 53f
8:06pm 6 7 mph 1021.8mb 53f
8:00pm 5 7 mph 1021.8mb 53f
7:36pm 2 5 mph 1021.9mb 53f
7:30pm 2 5 mph 1021.9mb 53f
7:24pm 2 3 mph 1021.9mb 53f
7:18pm 2 5 mph 1021.9mb 53f
7:12pm 3 6 mph 1021.9mb 53f
7:06pm 3 5 mph 1021.9mb 53f
7:00pm 2 5 mph 1021.9mb 53f
6:36pm 3 5 mph 1021.9mb 53f
6:30pm 3 5 mph 1021.9mb 53f
6:24pm 3 5 mph 1021.9mb 53f
6:18pm 5 6 mph 1021.9mb 53f
6:12pm 3 6 mph 1021.9mb 53f
6:06pm 3 5 mph 1021.8mb 53f
6:00pm 3 5 mph 1021.8mb 53f
5:36pm 1 2 mph 1021.7mb 53f
5:30pm  -  mph 1021.7mb 53f
5:24pm  -  2 mph 1021.6mb 53f
5:18pm  -  3 mph 1021.6mb 53f
5:12pm  -  mph 1021.5mb 53f
5:06pm 1 2 mph 1021.5mb 53f
5:00pm  -  2 mph 1021.4mb 53f
4:36pm 6 10 mph 1021.2mb 53f
4:30pm  -  mph 1021.1mb 53f
4:24pm 7 9 mph 1021.1mb 53f
4:18pm 6 8 mph 1021.1mb 53f
4:12pm  -  mph 1021mb 53f
4:06pm 6 8 mph 1021mb 53f
4:00pm 7 8 mph 1021mb 53f
3:36pm 7 10 mph 1020.8mb 52f
3:30pm 7 10 mph 1020.8mb 52f
3:24pm 7 10 mph 1020.8mb 52f
3:18pm 6 13 mph 1020.7mb 52f
3:12pm 8 13 mph 1020.6mb 52f
3:06pm 9 13 mph 1020.6mb 52f
3:00pm  -  mph 1020.6mb 52f
2:36pm 6 11 mph 1020.8mb 52f
2:30pm 7 13 mph 1020.8mb 52f
2:24pm 5 13 mph 1020.8mb 52f
2:18pm 7 11 mph 1020.8mb 52f
2:12pm  -  mph 1020.8mb 52f
2:06pm  -  mph 1020.8mb 52f
2:00pm 2 7 mph 1020.9mb 52f
1:36pm 7 11 mph 1021.1mb 53f
1:30pm 7 14 mph 1021.2mb 52f
1:24pm 8 17 mph 1021.3mb 52f
1:18pm 9 14 mph 1021.4mb 52f
1:12pm 8 15 mph 1021.5mb 52f
1:06pm 5 11 mph 1021.5mb 52f
1:00pm 5 10 mph 1021.5mb 52f
12:36pm 7 10 mph 1021.9mb 52f
12:30pm 6 11 mph 1022.1mb 52f
12:24pm 6 9 mph 1022.3mb 52f
12:18pm  -  mph 1022.4mb 52f
12:12pm 7 11 mph 1022.5mb 52f
12:06pm 8 14 mph 1022.6mb 52f
12:00pm  -  mph 1022.7mb 52f
11:54am 5 7 mph 1022.8mb 52f
11:48am 3 7 mph 1022.8mb 52f
11:36am 2 5 mph 1023mb 52f
11:30am 3 7 mph 1023.2mb 52f
11:24am 5 7 mph 1023.2mb 52f
11:18am 6 7 mph 1023.3mb 52f
11:12am 6 7 mph 1023.4mb 52f
11:06am 6 7 mph 1023.5mb 52f
11:00am 6 7 mph 1023.6mb 52f
10:54am 5 6 mph 1023.6mb 52f
10:48am 6 7 mph 1023.6mb 52f
10:36am 3 7 mph 1023.6mb 52f
10:30am 3 7 mph 1023.6mb 52f
10:24am 5 9 mph 1023.6mb 52f
10:18am 7 10 mph 1023.6mb 52f
10:12am 7 9 mph 1023.6mb 52f
10:06am 7 11 mph 1023.6mb 52f
10:00am 7 11 mph 1023.6mb 52f
9:36am 8 14 mph 1023.6mb 52f
9:30am  -  mph 1023.6mb 52f
9:24am 7 15 mph 1023.6mb 52f
9:18am 8 13 mph 1023.7mb 52f
9:12am 8 16 mph 1023.7mb 52f
9:06am 10 17 mph 1023.8mb 52f
9:00am 9 14 mph 1023.9mb 52f
8:54am 8 13 mph 1023.9mb 52f
8:48am 8 13 mph 1024mb 52f
8:36am 9 13 mph 1023.9mb 52f
8:30am 8 11 mph 1023.9mb 52f
8:24am 8 13 mph 1023.9mb 52f
8:18am 7 11 mph 1023.9mb 52f
8:12am  -  mph 1023.9mb 52f
8:06am 9 14 mph 1024mb 52f
8:00am 8 13 mph 1024mb 52f
7:54am 7 13 mph 1024.1mb 52f
7:48am 9 13 mph 1024.1mb 52f
7:36am 6 11 mph 1024.2mb 52f
7:30am 7 13 mph 1024.2mb 52f
7:24am 7 10 mph 1024.2mb 52f
7:18am 8 13 mph 1024.3mb 52f
7:12am 7 13 mph 1024.3mb 52f
7:06am 7 9 mph 1024.3mb 52f
7:00am 6 9 mph 1024.3mb 52f
6:54am 5 8 mph 1024.3mb 52f
6:48am 6 9 mph 1024.3mb 52f
6:36am  -  mph 1024.2mb 52f
6:30am 8 10 mph 1024.2mb 52f
6:24am 7 11 mph 1024.2mb 52f
6:18am 7 10 mph 1024.3mb 52f
6:12am 9 13 mph 1024.3mb 52f
6:06am 8 11 mph 1024.3mb 52f
6:00am 8 13 mph 1024.3mb 52f
5:54am 7 13 mph 1024.4mb 52f
5:48am 8 11 mph 1024.4mb 52f
5:36am 8 11 mph 1024.4mb 52f
5:30am 7 11 mph 1024.4mb 52f
5:24am 8 10 mph 1024.4mb 52f
5:18am 8 10 mph 1024.5mb 52f
5:12am 9 10 mph 1024.5mb 52f
5:06am 8 11 mph 1024.6mb 52f
5:00am 8 11 mph 1024.6mb 52f
4:54am 8 10 mph 1024.7mb 52f
4:48am 8 10 mph 1024.6mb 52f
4:36am 7 9 mph 1024.7mb 52f
4:30am 7 9 mph 1024.7mb 52f
4:24am 7 9 mph 1024.7mb 52f
4:18am 7 10 mph 1024.8mb 52f
4:12am 9 13 mph 1024.8mb 52f
4:06am  -  mph 1024.8mb 52f
4:00am 8 11 mph 1024.8mb 52f
3:54am 8 11 mph 1024.8mb 52f
3:48am 7 11 mph 1024.8mb 52f
3:36am 9 13 mph 1024.9mb 52f
3:30am 8 11 mph 1024.9mb 52f
3:24am 8 11 mph 1024.9mb 52f
3:18am 8 11 mph 1024.9mb 52f
3:12am 8 13 mph 1025mb 52f
3:06am 8 10 mph 1025.1mb 52f
3:00am 7 9 mph 1025.2mb 52f
2:54am 6 9 mph 1025.3mb 52f
2:48am 6 9 mph 1025.4mb 52f
2:36am 6 9 mph 1025.5mb 52f
2:30am 6 7 mph 1025.5mb 52f
2:24am 6 8 mph 1025.6mb 52f
2:18am 7 8 mph 1025.6mb 52f
2:12am 6 7 mph 1025.7mb 52f
2:06am 6 7 mph 1025.6mb 52f
2:00am 6 8 mph 1025.6mb 52f
1:54am 7 10 mph 1025.6mb 52f
1:48am 7 11 mph 1025.6mb 52f
1:36am 8 11 mph 1025.6mb 52f
1:30am 8 10 mph 1025.7mb 52f
1:24am 6 9 mph 1025.7mb 52f
1:18am 8 10 mph 1025.7mb 52f
1:12am 9 10 mph 1025.8mb 52f
1:06am 7 9 mph 1025.9mb 52f
1:00am 7 9 mph 1025.9mb 52f
12:54am 7 8 mph 1025.9mb 52f
12:48am 6 8 mph 1025.9mb 52f
12:36am 6 8 mph 1025.9mb 52f
12:30am 6 8 mph 1025.9mb 52f
12:24am 6 8 mph 1026mb 52f
12:18am 7 9 mph 1026mb 52f
12:12am 7 9 mph 1026mb 52f
12:06am 7 10 mph 1026.1mb 52f
12:00am 8 9 mph 1026.2mb 52f
Sun 02/07 11:54pm 8 10 mph 1026.2mb 52f
11:48pm 8 13 mph 1026.3mb 52f
11:36pm 8 10 mph 1026.3mb 52f
11:30pm 8 14 mph 1026.4mb 52f
11:24pm 8 13 mph 1026.4mb 52f
11:18pm 9 13 mph 1026.4mb 52f
11:12pm 8 14 mph 1026.4mb 52f
11:06pm 9 15 mph 1026.5mb 52f
11:00pm 8 10 mph 1026.5mb 52f
10:54pm  -  mph 1026.5mb 52f
10:48pm 5 8 mph 1026.5mb 52f
10:36pm 7 9 mph 1026.5mb 52f
10:30pm 6 10 mph 1026.6mb 52f
10:24pm 7 10 mph 1026.6mb 52f
10:18pm 8 9 mph 1026.7mb 52f
10:12pm 7 9 mph 1026.7mb 52f
10:06pm 7 8 mph 1026.7mb 52f
10:00pm 7 10 mph 1026.7mb 52f
9:54pm 7 9 mph 1026.7mb 52f
9:48pm 6 9 mph 1026.8mb 52f
9:36pm 7 11 mph 1026.8mb 52f
9:30pm 6 8 mph 1026.9mb 52f
9:24pm 6 10 mph 1026.9mb 52f
9:18pm 6 9 mph 1026.9mb 52f
9:12pm 6 9 mph 1026.9mb 52f
9:06pm 7 11 mph 1026.9mb 52f
9:00pm 6 13 mph 1026.9mb 52f
8:54pm 7 10 mph 1026.9mb 52f
8:48pm 7 10 mph 1026.9mb 52f
8:36pm 7 9 mph 1026.9mb 52f
8:30pm 6 8 mph 1026.9mb 53f
8:24pm 6 10 mph 1026.9mb 53f
8:18pm 6 10 mph 1027mb 53f
8:12pm 5 8 mph 1027mb 53f
8:06pm 5 6 mph 1027.1mb 53f
8:00pm  -  mph 1027.1mb 53f
7:54pm 3 5 mph 1027.1mb 53f
7:48pm 2 5 mph 1027.1mb 53f
7:36pm 3 8 mph 1027.1mb 53f
7:30pm  -  mph 1027.2mb 53f
7:24pm 5
mph
1027.2mb 53f
7:18pm 2 5 mph 1027.3mb 53f
7:12pm 2 3 mph 1027.3mb 53f
7:06pm  -  3 mph 1027.3mb 53f
7:00pm 1 2 mph 1027.3mb 53f
6:54pm  -  5 mph 1027.3mb 53f
6:48pm  -  mph 1027.2mb 53f
6:36pm 1 2 mph 1027.3mb 53f
6:30pm 2 5 mph 1027.3mb 53f
6:24pm  -  mph 1027.3mb 53f
6:18pm  -  2 mph 1027.3mb 53f
6:12pm 1 2 mph 1027.3mb 53f
6:06pm 1 6 mph 1027.2mb 53f
6:00pm  -  3 mph 1027.2mb 53f
5:54pm 1 3 mph 1027.2mb 53f
5:48pm  -  mph 1027.1mb 53f
5:36pm 6 8 mph 1027mb 53f
5:30pm 6 8 mph 1027mb 53f
5:24pm 5 6 mph 1027mb 53f
5:18pm 2 3 mph 1026.9mb 53f
5:12pm 1 3 mph 1026.9mb 53f
5:06pm 2 7 mph 1026.9mb 52f
5:00pm 3 7 mph 1026.9mb 52f
4:54pm 7 9 mph 1026.9mb 52f
4:48pm 6 9 mph 1026.8mb 52f
4:36pm  -  mph 1026.9mb 52f
4:30pm  -  mph 1026.8mb 52f
4:24pm  -  mph 1026.8mb 52f
4:18pm  -  mph 1026.9mb 52f
4:12pm  -  mph 1026.9mb 52f
4:06pm  -  mph 1027mb 52f
4:00pm  -  mph 1027mb 52f
3:54pm  -  mph 1027mb 52f
3:48pm  -  mph 1027.1mb 52f
3:36pm  -  2 mph 1027.2mb 52f
3:30pm 2 3 mph 1027.2mb 52f
3:24pm 1 3 mph 1027.3mb 52f
3:18pm 1 2 mph 1027.3mb 52f
3:12pm  -  2 mph 1027.2mb 52f
3:06pm 1 2 mph 1027.2mb 52f
3:00pm  -  mph 1027.2mb 52f
2:54pm 1 2 mph 1027.3mb 52f
2:48pm  -  1 mph 1027.3mb 52f
2:36pm 1 3 mph 1027.5mb 52f
2:30pm  -  1 mph 1027.5mb 52f
2:24pm  -  2 mph 1027.5mb 52f
2:18pm 1 2 mph 1027.4mb 52f
2:12pm  -  2 mph 1027.6mb 52f
2:06pm 2 5 mph 1027.7mb 52f
2:00pm 2 8 mph 1027.8mb 52f
1:54pm 5 6 mph 1027.9mb 52f
1:48pm 6 7 mph 1027.9mb 52f
1:36pm 1 2 mph 1028.1mb 52f
1:30pm 1 3 mph 1028.2mb 52f
1:24pm 2 3 mph 1028.4mb 52f
1:18pm 2 6 mph 1028.4mb 52f
1:12pm 1 5 mph 1028.5mb 52f
1:06pm 3 6 mph 1028.6mb 52f
1:00pm 5 6 mph 1028.7mb 52f
12:54pm 2 3 mph 1028.7mb 52f
12:48pm 2 5 mph 1028.7mb 52f
12:36pm 3 5 mph 1028.9mb 52f
12:30pm  -  2 mph 1029mb 52f
12:24pm  -  3 mph 1029.1mb 52f
12:18pm 2
mph
1029.2mb 52f
12:12pm  -  2 mph 1029.2mb 52f
12:06pm 2 3 mph 1029.3mb 52f
12:00pm 3 5 mph 1029.4mb 52f
11:54am 3 5 mph 1029.4mb 52f
11:48am 5 7 mph 1029.5mb 52f
11:36am 6 7 mph 1029.7mb 52f
11:30am 6 7 mph 1029.8mb 52f
11:24am 6 8 mph 1030mb 52f
11:18am 6 9 mph 1030.2mb 52f
11:12am 6 8 mph 1030.3mb 52f
11:06am 5 9 mph 1030.3mb 52f
11:00am 5 9 mph 1030.4mb 52f
10:54am 5 8 mph 1030.4mb 52f
10:48am  -  mph 1030.4mb 52f
10:36am 6 9 mph 1030.5mb 52f
10:30am 7 9 mph 1030.4mb 52f
10:24am 7 9 mph 1030.4mb 52f
10:18am 6 10 mph 1030.3mb 52f
10:12am 7 11 mph 1030.4mb 52f
10:06am 7 10 mph 1030.5mb 52f
10:00am 7 10 mph 1030.6mb 52f
9:54am 7 11 mph 1030.6mb 52f
9:48am 8 11 mph 1030.6mb 52f
9:36am 7 11 mph 1030.7mb 52f
9:30am 6 9 mph 1030.7mb 52f
9:24am 6 7 mph 1030.8mb 52f
9:18am 5 6 mph 1030.8mb 52f
9:12am 5 8 mph 1030.8mb 52f
9:06am 5 7 mph 1030.8mb 52f
9:00am 6 9 mph 1030.8mb 52f
8:54am  -  mph 1030.8mb 52f
8:48am 6 10 mph 1030.8mb 52f
8:36am 6 10 mph 1030.8mb 52f
8:30am 6 9 mph 1030.8mb 52f
8:24am 6 8 mph 1030.8mb 52f
8:18am 6 7 mph 1030.7mb 51f
8:12am 6 8 mph 1030.7mb 51f
8:06am 6 9 mph 1030.7mb 51f
8:00am 6 8 mph 1030.7mb 51f
7:54am 5 7 mph 1030.6mb 51f
7:48am 5 7 mph 1030.5mb 51f
7:36am 5 8 mph 1030.3mb 51f
7:30am 5 7 mph 1030.3mb 51f
7:24am 6 8 mph 1030.2mb 51f
7:18am 5 7 mph 1030.2mb 51f
7:12am 3 8 mph 1030.2mb 51f
7:06am 5 8 mph 1030.2mb 51f
7:00am 5 8 mph 1030.1mb 51f
6:54am 6 8 mph 1030.1mb 51f
6:48am 5 7 mph 1030.2mb 51f
6:36am 6 8 mph 1030.4mb 51f
6:30am 7 9 mph 1030.4mb 51f
6:24am 7 10 mph 1030.3mb 51f
6:18am  -  mph 1030.4mb 51f
6:12am 7 9 mph 1030.4mb 51f
6:06am 7 10 mph 1030.4mb 51f
6:00am 6 8 mph 1030.4mb 51f
5:54am 7 8 mph 1030.4mb 51f
5:48am 5 8 mph 1030.4mb 51f
5:36am 6 7 mph 1030.4mb 51f
5:30am 5 7 mph 1030.5mb 51f
5:24am 5 7 mph 1030.5mb 51f
5:18am 5 7 mph 1030.5mb 51f
5:12am 3 7 mph 1030.6mb 51f
5:06am 3 6 mph 1030.6mb 51f
5:00am 3 5 mph 1030.6mb 51f
4:36am 2 3 mph 1030.5mb 52f
4:30am 2
mph
1030.6mb 52f
4:24am 2 3 mph 1030.6mb 52f
4:18am 1 2 mph 1030.6mb 52f
4:12am 2 3 mph 1030.7mb 52f
4:06am 2 3 mph 1030.7mb 52f
4:00am 1 3 mph 1030.7mb 52f
3:54am 1
mph
1030.8mb 52f
3:48am  -  1 mph 1030.8mb 52f
3:36am  -  1 mph 1030.8mb 52f
3:30am 1
mph
1030.7mb 52f
3:24am  -  1 mph 1030.6mb 52f
3:18am  -  1 mph 1030.6mb 52f
3:12am  -  1 mph 1030.6mb 52f
3:06am  -  mph 1030.6mb 52f
3:00am  -  1 mph 1030.6mb 52f
2:54am  -  1 mph 1030.7mb 52f
2:48am  -  1 mph 1030.6mb 52f
2:36am  -  1 mph 1030.6mb 52f
2:30am  -  1 mph 1030.6mb 52f
2:24am  -  2 mph 1030.5mb 52f
2:18am 1 5 mph 1030.5mb 52f
2:12am 2 5 mph 1030.5mb 52f
2:06am 2 5 mph 1030.4mb 52f
2:00am 2 5 mph 1030.4mb 52f
1:54am 3 5 mph 1030.4mb 52f
1:48am 3 5 mph 1030.4mb 52f
1:36am 2 6 mph 1030.5mb 52f
1:30am 3 6 mph 1030.5mb 52f
1:24am 3 5 mph 1030.4mb 52f
1:18am 3 6 mph 1030.5mb 52f
1:12am 3 5 mph 1030.6mb 52f
1:06am 2 5 mph 1030.8mb 52f
1:00am 2 5 mph 1030.8mb 52f
12:54am 2 3 mph 1030.8mb 52f
12:48am 2
mph
1030.8mb 52f
12:36am 1 2 mph 1030.9mb 52f
12:30am  -  3 mph 1030.7mb 52f
12:24am 2 3 mph 1030.6mb 52f
12:18am 2
mph
1030.6mb 52f
12:12am 1
mph
1030.6mb 52f
12:06am  -  1 mph 1030.6mb 52f
12:00am  -  1 mph 1030.5mb 52f
Sat 02/06 11:54pm  -  1 mph 1030.4mb 52f
11:48pm 1
mph
1030.4mb 52f
11:36pm  -  2 mph 1030.2mb 52f
11:30pm 1 5 mph 1030.2mb 52f
11:24pm  -  mph 1030.1mb 52f
11:18pm 3 5 mph 1030mb 52f
11:12pm 2 5 mph 1029.8mb 52f
11:06pm 1 3 mph 1029.8mb 52f
11:00pm 1 2 mph 1029.9mb 52f
10:54pm  -  1 mph 1030mb 52f
10:48pm  -  2 mph 1030mb 52f
10:36pm 2 3 mph 1030mb 52f
10:30pm 2
mph
1030.1mb 52f
10:24pm 1 2 mph 1030mb 52f
10:18pm  -  1 mph 1030mb 52f
10:12pm  -  1 mph 1029.8mb 52f
10:06pm  -  1 mph 1029.7mb 52f
10:00pm  -  2 mph 1029.6mb 52f
9:54pm  -  2 mph 1029.5mb 52f
9:48pm 3 5 mph 1029.5mb 52f
9:36pm 3
mph
1029.5mb 52f
9:30pm 2 5 mph 1029.5mb 52f
9:24pm 2 3 mph 1029.5mb 52f
9:18pm 2 3 mph 1029.5mb 51f
9:12pm 2 3 mph 1029.4mb 51f
9:06pm  -  mph 1029.5mb 51f
9:00pm  -  mph 1029.5mb 51f
8:54pm 2 6 mph 1029.5mb 51f
8:48pm 2 5 mph 1029.4mb 51f
8:36pm  -  mph 1029.7mb 51f
8:30pm  -  1 mph 1029.6mb 51f
8:24pm 1
mph
1029.6mb 51f
8:18pm  -  2 mph 1029.6mb 51f
8:12pm  -  2 mph 1029.6mb 51f
8:06pm 1 3 mph 1029.6mb 51f
8:00pm 1 2 mph 1029.6mb 51f
7:54pm 2
mph
1029.6mb 52f
7:48pm  -  2 mph 1029.6mb 52f
7:36pm 3
mph
1029.7mb 52f
7:30pm 2
mph
1029.7mb 52f
7:24pm 2
mph
1029.7mb 52f
7:18pm 1 2 mph 1029.7mb 52f
7:12pm  -  1 mph 1029.8mb 52f
7:06pm  -  1 mph 1029.8mb 52f
7:00pm  -  1 mph 1029.6mb 52f
6:54pm 1
mph
1029.6mb 52f
6:48pm  -  1 mph 1029.6mb 52f
6:36pm 1 2 mph 1029.4mb 52f
6:30pm 1
mph
1029.4mb 52f
6:24pm  -  1 mph 1029.6mb 52f
6:18pm  -  1 mph - -
6:12pm  -  3 mph 1029.5mb 52f
6:06pm 2 3 mph 1029.4mb 52f
6:00pm 1 2 mph 1029.4mb 52f
5:54pm 2
mph
1029.3mb 52f
5:48pm 1
mph
1029mb 52f
5:36pm  -  1 mph 1028.8mb 52f
5:30pm  -  1 mph 1028.8mb 52f
5:24pm  -  1 mph 1028.9mb 52f
5:18pm  -  1 mph 1029mb 52f
5:12pm  -  1 mph 1029mb 52f
5:06pm  -  1 mph 1029mb 52f
5:00pm  -  1 mph 1029mb 52f
4:54pm  -  2 mph 1029mb 52f
4:48pm 2
mph
1029mb 52f
4:36pm 1 2 mph 1029mb 52f
4:30pm 1 3 mph 1028.9mb 52f
4:24pm 1 2 mph - -
4:18pm  -  2 mph 1028.9mb 52f
4:12pm  -  2 mph 1028.9mb 52f
4:06pm 1 2 mph 1028.9mb 52f
4:00pm 1 3 mph 1028.9mb 52f
3:54pm 1 3 mph 1028.9mb 52f
3:48pm 2 6 mph 1028.9mb 52f
3:36pm 2 5 mph 1028.8mb 52f
3:30pm 2 6 mph 1028.8mb 52f
3:24pm 1 6 mph 1028.7mb 52f
3:18pm 1 5 mph 1028.8mb 52f
3:12pm 1 6 mph 1028.8mb 52f
3:06pm 1 6 mph 1028.7mb 52f
3:00pm 5 7 mph 1028.7mb 52f
2:54pm 3 5 mph 1028.6mb 52f
2:48pm  -  1 mph 1028.5mb 52f
2:36pm 1 3 mph 1028.5mb 52f
2:30pm  -  2 mph 1028.5mb 52f
2:24pm  -  3 mph 1028.6mb 52f
2:18pm 1 3 mph 1028.6mb 52f
2:12pm 2 5 mph 1028.7mb 52f
2:06pm  -  mph 1028.8mb 52f
2:00pm 2 5 mph 1028.9mb 52f
1:54pm 5
mph
1029mb 52f
1:48pm 2 3 mph 1029mb 52f
1:36pm  -  1 mph 1029mb 52f
1:30pm  -  1 mph 1029mb 52f
1:24pm  -  mph 1029mb 52f
1:18pm  -  2 mph 1029.1mb 52f
1:12pm  -  2 mph 1029.2mb 52f
1:06pm  -  mph 1029.3mb 52f
1:00pm 1 6 mph 1029.4mb 51f
12:54pm 2 3 mph 1029.4mb 51f
12:48pm 2 3 mph 1029.4mb 52f
12:36pm 2 6 mph 1029.4mb 51f
12:30pm 2 6 mph 1029.4mb 52f
12:24pm 2 6 mph 1029.5mb 52f
12:18pm 3 6 mph 1029.6mb 52f
12:12pm 5 8 mph 1029.8mb 52f
12:06pm 6 9 mph 1029.8mb 52f
12:00pm 5 7 mph 1030mb 52f
11:54am 5 9 mph 1030mb 52f
11:48am  -  mph 1029.9mb 52f
11:36am 5 7 mph 1030.3mb 52f
11:30am  -  mph 1030.4mb 52f
11:24am 5 6 mph 1030.5mb 52f
11:18am 3 8 mph - -
11:12am 3 7 mph 1030.7mb 52f
11:06am  -  mph 1030.8mb 52f
11:00am 3 5 mph 1030.8mb 52f
10:54am 3 6 mph 1030.8mb 52f
10:48am 5 7 mph 1030.7mb 52f
10:36am 5 9 mph 1030.9mb 52f
10:30am 5 9 mph 1031.1mb 52f
10:24am 5 7 mph 1031.2mb 52f
10:18am 5 7 mph 1031.2mb 52f
10:12am  -  mph 1031.2mb 52f
10:06am 3 6 mph 1031.2mb 52f
10:00am 3 6 mph 1031.2mb 52f
9:54am 3 6 mph 1031.1mb 52f
9:48am 5 6 mph 1031mb 52f
9:36am  -  mph 1031mb 52f
9:30am 6 8 mph 1031mb 52f
9:24am 6 11 mph 1030.8mb 52f
9:18am 6 10 mph 1030.8mb 52f
9:12am 5 8 mph 1030.7mb 52f
9:06am 6 7 mph 1030.7mb 52f
9:00am 3 6 mph 1030.6mb 52f
8:54am 3 6 mph 1030.5mb 52f
8:48am 3 7 mph 1030.5mb 52f
8:36am 5 6 mph 1030.6mb 52f
8:30am 5 6 mph 1030.6mb 52f
8:24am 5 6 mph 1030.6mb 52f
8:18am 5 8 mph 1030.7mb 52f
8:12am 6 8 mph 1030.6mb 51f
8:06am 5 7 mph 1030.5mb 51f
8:00am 5 7 mph 1030.5mb 51f
7:54am 5 8 mph 1030.7mb 51f
7:48am 6 7 mph 1030.9mb 51f
7:36am 2 5 mph 1031mb 51f
7:30am 3 6 mph 1031mb 51f
7:24am 2
mph
1031mb 51f
7:18am 2 3 mph 1030.9mb 51f
7:12am 3 5 mph 1030.9mb 51f
7:06am 2 3 mph 1030.9mb 51f
7:00am  -  2 mph 1031mb 51f
6:54am 1 3 mph 1031mb 51f
6:48am 2 3 mph 1030.9mb 51f
6:36am 3 5 mph 1030.9mb 51f
6:30am 3 6 mph 1030.9mb 51f
6:24am 5 6 mph 1030.9mb 51f
6:18am 5 6 mph 1030.9mb 51f
6:12am 3 5 mph 1030.9mb 51f
6:06am 3 5 mph 1030.7mb 51f
6:00am 2 3 mph 1030.7mb 51f
5:54am 2 5 mph 1030.6mb 51f
5:48am 2 3 mph 1030.7mb 51f
5:36am 2 3 mph 1030.7mb 51f
5:30am 1 3 mph 1030.6mb 51f
5:24am 2
mph
1030.6mb 51f
5:18am 1 2 mph 1030.5mb 51f
5:12am 1 2 mph 1030.5mb 51f
5:06am  -  2 mph 1030.5mb 51f
5:00am 1 3 mph 1030.5mb 51f
4:54am 2
mph
1030.3mb 51f
4:48am 3 5 mph 1030.2mb 51f
4:36am 2 3 mph 1030.2mb 51f
4:30am 1 2 mph 1030.2mb 51f
4:24am 2 3 mph 1030.1mb 51f
4:18am 2 3 mph 1030.1mb 51f
4:12am 1 2 mph 1030.1mb 51f
4:06am 1 2 mph 1030.2mb 51f
4:00am 1 6 mph 1030.2mb 51f
3:54am 3 6 mph 1030.1mb 51f
3:48am 3 6 mph 1030.1mb 51f
3:36am 3 6 mph 1030.1mb 51f
3:30am 2 6 mph 1030.2mb 51f
3:24am 2 5 mph - -
3:18am 2 5 mph 1030.4mb 51f
3:12am 2 5 mph 1030.4mb 51f
3:06am 2 6 mph 1030.3mb 51f
3:00am 3 6 mph 1030.2mb 51f
2:54am 2 5 mph 1030.2mb 51f
2:48am 2 5 mph 1030.3mb 51f
2:36am 3 6 mph 1030.2mb 51f
2:30am 2 7 mph 1030.4mb 51f
2:24am 2 6 mph 1030.4mb 51f
2:18am 2 6 mph 1030.5mb 51f
2:12am 3 7 mph 1030.5mb 51f
2:06am 2 5 mph 1030.5mb 51f
2:00am 2 3 mph 1030.5mb 51f
1:54am 2 6 mph 1030.5mb 51f
1:48am 2 6 mph 1030.5mb 51f
1:36am 2 5 mph 1030.6mb 51f
1:30am 3 7 mph 1030.8mb 51f
1:24am 3 6 mph 1030.7mb 51f
1:18am 2 5 mph 1030.7mb 51f
1:12am 3 6 mph 1030.8mb 51f
1:06am 2 6 mph 1030.6mb 51f
1:00am 2 7 mph 1030.7mb 51f
12:54am 2 7 mph 1030.8mb 51f
12:48am 3 6 mph 1030.7mb 51f
12:36am 3 7 mph 1030.7mb 51f
12:30am 3 6 mph 1030.6mb 51f
12:24am 5 6 mph 1030.4mb 52f
12:18am  -  mph 1030.3mb 52f
12:12am 3 6 mph 1030.3mb 52f
12:06am 3 6 mph 1030.3mb 52f
12:00am 3 5 mph 1030.3mb 52f
Fri 02/05 11:54pm 3 8 mph 1030.6mb 52f
11:48pm 2 6 mph 1030.8mb 52f
11:36pm 5 7 mph 1030.4mb 52f
11:30pm 3 7 mph 1030.2mb 52f
11:24pm 3 6 mph 1030.1mb 52f
11:18pm 2 5 mph 1030.2mb 52f
11:12pm  -  mph 1030.3mb 52f
11:06pm 2 5 mph 1030.4mb 52f
11:00pm 2 6 mph 1030.3mb 52f
10:54pm 2 5 mph 1030.2mb 52f
10:48pm 2 6 mph 1030.2mb 52f
10:36pm 2 3 mph 1030.2mb 52f
10:30pm 1 2 mph 1030.3mb 52f
10:24pm  -  1 mph 1030.3mb 52f
10:18pm 1 3 mph 1030.3mb 52f
10:12pm 1 5 mph 1030.1mb 52f
10:06pm 1 2 mph 1030mb 52f
10:00pm 1 3 mph 1030.3mb 52f
9:54pm 2 6 mph 1030.1mb 52f
9:48pm 3 6 mph 1029.8mb 52f
9:36pm 3 5 mph 1029.4mb 52f
9:30pm 2 6 mph 1029.3mb 52f
9:24pm  -  mph 1029.5mb 52f
9:18pm 2 3 mph 1029.4mb 52f
9:12pm 2 3 mph 1029.3mb 52f
9:06pm 2
mph
1029.4mb 52f
9:00pm 1 2 mph 1029.4mb 52f
8:54pm 2 3 mph 1029.3mb 52f